Location: Gülübeli Geçidi
(36.8411°N, 29.7411°E)
Time: 04:36:26
(UTC+00:00)

SL-08 R/B - Pass Details

Date: 15 May 2026
Orbit: 666 x 729 km, 98.5° (Epoch: 6 June)

Event Time Altitude Azimuth Distance (km) Brightness Sun altitude
Rises 18:05:43 0° 18° (NNE) 3,111 6.9 -11.9°
Reaches altitude 10° 18:08:04 10° 24° (NNE) 2,178 6.0 -12.3°
Maximum altitude 18:12:42 50° 100° (E) 883 3.5 -13.1°
Drops below altitude 10° 18:17:13 10° 176° (S) 2,124 5.4 -13.8°
Enters shadow 18:17:42 - 177° (S) 2,311 5.6 -13.9°
